Date,TemperatureHighF,TemperatureAvgF,TemperatureLowF,DewpointHighF,DewpointAvgF,DewpointLowF,HumidityHigh,HumidityAvg,HumidityLow,PressureMaxIn,PressureMinIn,WindSpeedMaxMPH,WindSpeedAvgMPH,GustSpeedMaxMPH,PrecipitationSumIn
2013-3-1,65,60,56,53,48,43,76,64,46,29.99,29.91,8,3,14,0.00
2013-3-2,65,55,44,45,40,36,80,58,42,30.04,29.96,13,4,24,0.00
2013-3-3,62,49,40,41,37,32,90,65,46,30.17,29.97,14,5,24,0.00
2013-3-4,62,50,39,45,37,31,91,64,38,30.23,30.13,10,4,20,0.00
2013-3-5,75,60,41,61,51,39,95,75,34,30.18,30.06,10,2,15,0.00
2013-3-6,74,62,49,63,48,29,94,66,23,30.11,29.95,14,6,26,0.00
2013-3-7,68,55,44,55,46,34,94,71,59,30.20,30.08,8,4,15,0.00
2013-3-8,70,59,46,55,50,44,96,75,49,30.22,30.13,8,2,16,0.00
2013-3-9,74,62,49,59,53,47,94,74,55,30.22,30.12,9,3,16,0.00
2013-3-10,76,69,64,63,58,53,74,68,55,30.18,30.09,10,4,18,0.00
2013-3-11,77,70,64,65,60,57,85,72,60,30.13,29.95,10,3,17,0.00
2013-3-12,79,71,62,69,65,60,94,81,63,30.00,29.90,12,4,21,0.00
2013-3-13,72,62,52,62,54,49,95,78,54,30.14,29.99,13,4,21,0.00
2013-3-14,67,57,49,51,47,41,93,71,48,30.23,30.12,13,5,23,0.00
2013-3-15,69,57,47,54,48,42,93,75,57,30.27,30.17,8,3,17,0.00
2013-3-16,75,60,43,57,50,42,96,73,36,30.21,30.08,10,2,17,0.00
2013-3-17,76,65,49,62,56,47,94,75,59,30.17,30.04,10,2,17,0.00
2013-3-18,82,70,64,70,65,60,96,84,64,30.08,29.95,8,2,20,0.17
2013-3-19,79,70,62,68,65,61,97,86,66,30.02,29.89,6,1,13,0.00
2013-3-20,82,69,59,70,62,58,98,81,53,29.97,29.80,12,3,22,0.00
2013-3-21,71,62,50,61,52,46,95,72,43,29.96,29.84,10,4,18,0.00
2013-3-22,76,62,46,68,55,44,96,79,52,30.03,29.91,8,1,13,0.12
2013-3-23,88,76,65,75,68,64,98,80,52,29.99,29.78,12,3,20,0.00
2013-3-24,88,76,68,74,70,64,96,82,59,29.88,29.66,18,7,35,0.40
2013-3-25,78,71,58,72,55,35,97,63,30,30.00,29.74,12,4,20,0.01
2013-3-26,67,57,47,43,37,31,67,49,32,30.22,30.00,14,6,22,0.00
2013-3-27,65,53,43,48,41,32,88,63,49,30.28,30.19,9,4,17,0.00
2013-3-28,68,57,44,52,45,41,91,68,44,30.30,30.20,9,3,14,0.00
2013-3-29,74,60,47,55,50,44,91,70,48,30.32,30.22,9,2,17,0.00
2013-3-30,76,62,49,57,52,48,96,73,49,30.27,30.17,10,2,16,0.00
2013-3-31,81,67,53,67,60,51,94,79,56,30.20,30.03,10,2,20,0.00